Location: Bauen
(46.9356°N, 8.5784°E)
Time: 19:16:44
(UTC+00:00)

Cosmos 1943 Rocket - Pass Details

Date: 18 February 2020
Orbit: 813 x 842 km, 71.0° (Epoch: 05 April)

Event Time Altitude Azimuth Distance (km) Brightness Sun altitude
Exits shadow 02:31:12 17° 21° (NNE) 1,978 4.5 -39.8°
Maximum altitude 02:32:43 19° 42° (NE) 1,880 4.5 -39.6°
Drops below altitude 10° 02:36:30 10° 86° (E) 2,405 5.2 -39.0°
Sets 02:39:41 0° 104° (ESE) 3,334 5.9 -38.5°
